User: anonymous   Login
Location: Lancaster
(34.6980°N, 118.1360°W)
Time: 13:26:04
(UTC-07:00)
Language:

Envisat - Orbit

View from above orbital plane
View from above orbital plane
View from above satellite
View from above satellite

Ground track
Ground track

The orbit data is extracted from the following two-line orbital elements,

1 27386U 02009A   18201.57777980 -.00000013  00000-0  92131-5 0  9995
2 27386  98.1820 234.0611 0001375  96.4078  17.0138 14.37926111858324
Epoch (UTC): 20 July 2018 13:52:00
Eccentricity: 0.0001375
inclination: 98.1820°
perigee height: 764 km
apogee height: 766 km
right ascension of ascending node: 234.0611°
argument of perigee: 96.4078°
revolutions per day: 14.37926111
mean anomaly at epoch: 17.0138°
orbit number at epoch: 85832

The dashed part of the orbit path shows where the satellite is in the earth's shadow,  

DLR